#timestamp,LO_Frequency,Hit,StdDev 
1639188015.2,286047002.2,N
1639188035.0,286047002.3,N
1639188035.9,286047002.3,N
1639188055.8,286046999.7,N
1639188075.6,286047002.2,N
1639188095.5,286047001.5,N
1639188115.3,286047002.8,Y
1639188135.1,286046998.2,P
1639188155.9,286046998.4,N
1639188175.7,286046998.6,N
1639188195.5,286046998.7,N
1639188215.4,286046998.3,N
1639188235.2,286046998.3,N
1639188255.1,286046998.2,N
1639188256.0,286046998.2,N
1639188275.8,286047001.1,N
1639188295.6,286047001.1,N
1639188315.5,286047000.4,N
1639188335.3,286047000.2,N
1639188355.2,286047000.3,N
1639188375.9,286047001.1,N
1639188395.7,286046999.4,N
1639188415.6,286046999.1,N
1639188435.4,286046997.8,N
1639188455.2,286046997.1,N
1639188475.1,286046996.6,N
1639188476.0,286046996.6,N
1639188495.8,286046998.2,N
1639188515.7,286046998.5,N
1639188535.5,286046998.5,N
1639188555.3,286046997.0,N
1639188575.2,286046998.9,N
1639188595.0,286046997.0,N
1639188595.9,286046997.0,N
1639188615.7,286046996.7,N
1639188635.6,286046999.2,N
1639188655.4,286046996.8,N
1639188675.3,286046999.2,N
1639188695.1,286046997.0,N
1639188696.0,286046997.0,N
1639188715.8,286046998.0,N
1639188735.7,286046995.2,Y
1639188755.5,286046997.3,P
1639188775.4,286046996.7,P
1639188795.2,286046999.1,N
1639188815.0,286046996.8,Y
1639188815.9,286046996.8,P
1639188835.8,286047000.9,N
1639188855.6,286047001.1,N
1639188875.5,286047000.3,N
1639188895.3,286047000.0,N
1639188915.1,286047002.1,N
1639188935.9,286047001.6,N
1639188955.7,286047002.0,N
1639188975.5,286047001.8,N
1639188995.4,286046999.7,N
1639189015.2,286046998.5,N
1639189035.1,286047000.4,N
1639189036.0,286047000.4,N
1639189055.8,286047000.9,N
1639189075.6,286047000.1,N
1639189095.5,286047002.4,N
1639189115.3,286047002.5,N
1639189135.1,286046999.9,N
1639189155.9,286047001.9,N
1639189175.7,286046999.8,N
1639189195.6,286046999.7,N
1639189215.4,286047001.1,N
1639189235.2,286047000.3,N
1639189255.1,286047001.6,N
1639189256.0,286047001.6,N
1639189275.8,286047002.7,N
1639189295.6,286046999.8,N
1639189315.5,286047002.1,N
1639189335.3,286047002.4,N
1639189355.2,286047001.5,N
1639189375.9,286047001.6,N
1639189395.7,286047002.8,N
1639189415.6,286047000.4,N
1639189435.4,286047000.5,N
1639189455.2,286047000.7,N
1639189475.1,286046999.4,N
1639189476.0,286046999.4,N
1639189495.8,286046998.7,N
1639189515.7,286047000.7,N
1639189535.5,286047000.3,N
1639189555.3,286046999.7,N
1639189575.2,286047002.8,N
1639189595.0,286047002.5,N
1639189595.9,286047002.5,N
1639189615.8,286047002.0,N
1639189635.6,286047002.8,N
1639189655.4,286047001.4,N
1639189675.3,286047001.4,N
1639189695.1,286047004.2,Y
1639189715.8,286047002.5,P
1639189735.7,286046999.8,N
1639189755.5,286047002.6,N
1639189775.4,286047000.1,N
1639189795.2,286047002.3,N
1639189815.0,286046999.7,N
1639189815.9,286046999.7,N
1639189835.8,286046999.7,N
1639189855.6,286047000.4,N
1639189875.4,286046999.8,N
1639189895.3,286047000.9,N
1639189915.1,286047000.0,N
1639189935.9,286046999.9,N
1639189955.7,286047000.0,N
1639189975.5,286047002.8,N
1639189995.4,286047002.0,N
1639190015.2,286047002.1,N
1639190035.0,286047002.8,N
1639190036.0,286047002.8,N
1639190055.8,286047002.6,N
1639190075.6,286047002.8,N
1639190095.5,286046999.7,N
1639190115.3,286047002.0,N
1639190135.1,286047000.3,N
1639190155.9,286047002.7,N
1639190175.7,286047002.4,N
1639190195.6,286046999.8,N
1639190215.4,286047000.4,N
1639190235.2,286047002.4,N
1639190255.1,286047002.5,N
1639190256.0,286047002.5,N
1639190275.8,286047002.6,N
1639190295.6,286047001.7,N
1639190315.5,286047003.6,N
1639190335.3,286047003.8,N
1639190355.2,286047003.7,N
1639190375.9,286047004.1,N
1639190395.7,286047003.5,N
1639190415.6,286047001.9,N
1639190435.4,286047002.1,N
1639190455.2,286047002.1,N
1639190475.1,286047002.3,N
1639190476.0,286047002.3,N
1639190495.8,286047001.8,N
1639190515.7,286047001.5,N
1639190535.5,286047001.6,N
1639190555.3,286047003.2,N
1639190575.2,286047004.1,Y
1639190595.0,286047000.1,P
1639190595.9,286047000.1,N
1639190615.8,286047000.9,N
1639190635.6,286047000.2,N
1639190655.4,286047002.7,Y
1639190675.3,286046999.9,P
1639190695.1,286047002.3,P
1639190715.8,286047002.3,N
1639190735.7,286047002.6,N
1639190755.5,286047001.7,N
1639190775.4,286046999.9,N
1639190795.2,286047000.2,N
1639190815.0,286047002.1,N
1639190815.9,286047002.1,N
1639190835.8,286047001.5,N
1639190855.6,286047001.8,N
1639190875.4,286047004.4,Y
1639190895.3,286047011.9,P
1639190915.1,286046999.2,N
1639190935.9,286047000.7,N
1639190955.7,286046999.2,N
1639190975.5,286046999.6,N
1639190995.4,286046996.6,N
1639191015.2,286046996.5,N
1639191035.0,286046999.4,N
1639191035.9,286046999.4,N
1639191055.8,286046996.9,N
1639191075.6,286046999.5,N
1639191095.5,286046997.1,N
1639191115.3,286046997.7,N
1639191135.1,286046996.6,N
1639191155.9,286046996.7,N
1639191175.7,286046998.1,N
1639191195.6,286046999.4,N
1639191215.4,286047000.8,N
1639191235.2,286047000.4,N
1639191255.1,286047000.8,N
1639191256.0,286047000.8,N
1639191275.8,286046999.1,N
1639191295.7,286047000.6,N
1639191315.5,286047001.1,N
1639191335.3,286047000.3,N
1639191355.2,286047000.4,N
1639191375.0,286046999.9,N
1639191375.9,286046999.9,N
1639191395.8,286046998.1,N
1639191415.6,286046999.1,N
1639191435.4,286046999.4,N
1639191455.3,286046999.0,N
1639191475.1,286046996.5,N
1639191495.9,286046997.3,N
1639191515.7,286046998.0,N
1639191535.5,286046997.7,N
1639191555.4,286046998.0,N
1639191575.2,286046999.5,N
1639191595.0,286046996.8,N
1639191596.0,286046996.8,N
